Change the Weather History Date:

Sunday, April 7, 2013

  Actual Average Record
Temperature  
Mean Temperature 32 °F -  
Max Temperature 37 °F 44 °F 60 °F (1986)
Min Temperature 26 °F 24 °F 2 °F (1972)
Degree Days  
Heating Degree Days 34    
Moisture  
Dew Point 29 °F    
Average Humidity 82    
Maximum Humidity 93    
Minimum Humidity 65    
Precipitation  
Precipitation 0.00 in - - ()
Sea Level Pressure  
Sea Level Pressure 29.75 in    
Wind  
Wind Speed 9 mph (NNW)    
Max Wind Speed 18 mph    
Max Gust Speed 28 mph    
Visibility 9 miles    
Events Rain , Snow    
Averages and records for this station are not official NWS values.
T = Trace of Precipitation, MM = Missing Value Source: NWS Daily Summary

Daily Weather History Graph

Daily Weather History Graph

Search for Another Location

Airport or City:

Trip Planner

Search our weather history database for the weather conditions in past years. The results will help you decide how hot, cold, wet, or windy it might be!

Date:

Astronomy

Apr. 07, 2013 Rise Set
Actual Time 7:12 AM EDT 8:21 PM EDT
Civil Twilight 6:42 AM EDT 8:52 PM EDT
Nautical Twilight 6:05 AM EDT 9:29 PM EDT
Astronomical Twilight 5:26 AM EDT 10:08 PM EDT
Moon 5:38 AM EDT (4/7) 5:46 PM EDT (4/7)
Length of Visible Light 14h 10m
Length of Day
13h 08m
Waning Crescent, 8% of the Moon is Illuminated
Apr 7
Waning Crescent
Apr 10
New
Apr 18
First Quarter
Apr 25
Full
May 2
Last Quarter

Hourly Weather History & Observations

Time (EDT) Temp. Windchill Dew Point Humidity Pressure Visibility Wind Dir Wind Speed Gust Speed Precip Events Conditions
12:15 AM 37.4 °F 31.4 °F 32.0 °F 81% 29.51 in 10.0 mi ESE 8.1 mph - N/A Rain Light Rain
12:34 AM 37.4 °F 31.4 °F 32.0 °F 81% 29.49 in 10.0 mi ESE 8.1 mph - N/A Rain Light Rain
12:55 AM 37.4 °F 31.4 °F 33.8 °F 87% 29.47 in 7.0 mi East 8.1 mph - N/A Rain Light Rain
1:14 AM 37.4 °F 32.8 °F 33.8 °F 87% 29.46 in 7.0 mi East 5.8 mph - N/A Rain Rain
1:35 AM 35.6 °F 32.8 °F 33.8 °F 93% 29.45 in 5.0 mi East 3.5 mph - N/A Rain Light Rain
1:55 AM 35.6 °F - 33.8 °F 93% 29.44 in 2.0 mi Calm Calm - N/A Rain Light Rain
2:14 AM 35.6 °F - 33.8 °F 93% 29.44 in 2.5 mi Calm Calm - N/A Rain Light Rain
2:35 AM 35.6 °F 31.7 °F 33.8 °F 93% 29.44 in 2.5 mi North 4.6 mph - N/A Rain Light Rain
2:54 AM 35.6 °F 29.2 °F 33.8 °F 93% 29.44 in 3.0 mi NNW 8.1 mph - N/A   Drizzle
3:14 AM 35.6 °F 28.0 °F 32.0 °F 87% 29.43 in 4.0 mi North 10.4 mph - N/A   Light Drizzle
3:35 AM 33.8 °F 26.4 °F 32.0 °F 93% 29.43 in 4.0 mi NNW 9.2 mph - N/A   Drizzle
3:54 AM 33.8 °F 25.8 °F 32.0 °F 93% 29.43 in 4.0 mi NNW 10.4 mph - N/A Rain Rain
4:15 AM 33.8 °F 25.3 °F 32.0 °F 93% 29.44 in 4.0 mi NNW 11.5 mph - N/A Rain Light Rain
4:35 AM 33.8 °F 26.4 °F 32.0 °F 93% 29.45 in 4.0 mi NNW 9.2 mph 16.1 mph N/A Rain Light Rain
4:54 AM 33.8 °F 26.4 °F 32.0 °F 93% 29.45 in 4.0 mi NNW 9.2 mph 17.3 mph N/A Rain Rain
5:15 AM 33.8 °F 25.3 °F 32.0 °F 93% 29.47 in 4.0 mi NW 11.5 mph - N/A Rain Light Rain
5:34 AM 33.8 °F 24.3 °F 30.2 °F 87% 29.48 in 4.0 mi NW 13.8 mph 18.4 mph N/A Snow Light Snow
5:55 AM 33.8 °F 23.9 °F 30.2 °F 87% 29.50 in 5.0 mi NW 15.0 mph 23.0 mph N/A Snow Light Snow
6:15 AM 33.8 °F 23.5 °F 30.2 °F 87% 29.52 in 7.0 mi NW 16.1 mph 20.7 mph N/A Rain Light Rain
6:34 AM 33.8 °F 23.5 °F 30.2 °F 87% 29.54 in 10.0 mi NW 16.1 mph 23.0 mph N/A Snow Light Snow
6:55 AM 33.8 °F 23.5 °F 30.2 °F 87% 29.55 in 10.0 mi NW 16.1 mph 27.6 mph N/A Snow Light Snow
7:14 AM 33.8 °F 23.5 °F 30.2 °F 87% 29.57 in 10.0 mi NW 16.1 mph 21.9 mph N/A   Overcast
7:34 AM 33.8 °F 23.2 °F 30.2 °F 87% 29.58 in 10.0 mi NW 17.3 mph 23.0 mph N/A   Overcast
7:55 AM 33.8 °F 24.3 °F 30.2 °F 87% 29.60 in 10.0 mi NW 13.8 mph 23.0 mph N/A   Overcast
8:14 AM 33.8 °F 23.9 °F 30.2 °F 87% 29.62 in 10.0 mi NW 15.0 mph 20.7 mph N/A   Overcast
8:35 AM 33.8 °F 24.3 °F 30.2 °F 87% 29.64 in 10.0 mi NW 13.8 mph 21.9 mph N/A   Overcast
8:55 AM 33.8 °F 24.8 °F 30.2 °F 87% 29.65 in 10.0 mi NNW 12.7 mph 26.5 mph N/A   Overcast
9:14 AM 33.8 °F 24.3 °F 30.2 °F 87% 29.66 in 10.0 mi NNW 13.8 mph 26.5 mph N/A   Overcast
9:35 AM 35.6 °F 26.2 °F 30.2 °F 81% 29.68 in 10.0 mi NW 15.0 mph 25.3 mph N/A   Overcast
9:54 AM 35.6 °F 25.9 °F 30.2 °F 81% 29.69 in 10.0 mi NNW 16.1 mph 27.6 mph N/A   Overcast
10:15 AM 35.6 °F 27.1 °F 30.2 °F 81% 29.71 in 10.0 mi NNW 12.7 mph 20.7 mph N/A   Overcast
10:35 AM 35.6 °F 25.9 °F 30.2 °F 81% 29.72 in 10.0 mi NW 16.1 mph 23.0 mph N/A   Overcast
10:54 AM 35.6 °F 27.1 °F 30.2 °F 81% 29.73 in 10.0 mi NNW 12.7 mph 19.6 mph N/A   Overcast
11:15 AM 35.6 °F 27.1 °F 30.2 °F 81% 29.75 in 10.0 mi NW 12.7 mph 18.4 mph N/A   Overcast
11:34 AM 35.6 °F 27.5 °F 30.2 °F 81% 29.77 in 10.0 mi NNW 11.5 mph 23.0 mph N/A   Overcast
11:54 AM 35.6 °F 25.9 °F 28.4 °F 75% 29.80 in 10.0 mi NW 16.1 mph 23.0 mph N/A   Overcast
12:14 PM 35.6 °F 28.0 °F 28.4 °F 75% 29.81 in 10.0 mi NW 10.4 mph 20.7 mph N/A   Overcast
12:34 PM 35.6 °F 25.5 °F 28.4 °F 75% 29.82 in 10.0 mi NW 17.3 mph 25.3 mph N/A   Overcast
12:55 PM 37.4 °F 28.5 °F 28.4 °F 70% 29.83 in 10.0 mi NNW 15.0 mph 18.4 mph N/A   Overcast
1:14 PM 37.4 °F 28.2 °F 28.4 °F 70% 29.85 in 10.0 mi WNW 16.1 mph - N/A   Overcast
1:35 PM 35.6 °F 25.2 °F 28.4 °F 75% 29.86 in 10.0 mi NW 18.4 mph 27.6 mph N/A   Overcast
1:54 PM 35.6 °F 26.2 °F 28.4 °F 75% 29.87 in 10.0 mi NW 15.0 mph 21.9 mph N/A   Overcast
2:14 PM 37.4 °F 27.5 °F 28.4 °F 70% 29.88 in 10.0 mi NW 18.4 mph 25.3 mph N/A   Overcast
2:35 PM 35.6 °F 26.6 °F 28.4 °F 75% 29.89 in 10.0 mi NW 13.8 mph 25.3 mph N/A   Overcast
2:54 PM 35.6 °F 27.1 °F 28.4 °F 75% 29.90 in 10.0 mi NNW 12.7 mph 18.4 mph N/A   Overcast
3:15 PM 37.4 °F 29.8 °F 28.4 °F 70% 29.90 in 10.0 mi NW 11.5 mph 20.7 mph N/A   Overcast
3:35 PM 37.4 °F 30.3 °F 28.4 °F 70% 29.91 in 10.0 mi NW 10.4 mph 17.3 mph N/A   Overcast
3:54 PM 37.4 °F 29.8 °F 28.4 °F 70% 29.92 in 10.0 mi WNW 11.5 mph 16.1 mph N/A   Overcast
4:15 PM 35.6 °F 27.1 °F 28.4 °F 75% 29.93 in 10.0 mi WNW 12.7 mph 18.4 mph N/A   Overcast
4:34 PM 35.6 °F 27.5 °F 28.4 °F 75% 29.94 in 10.0 mi NW 11.5 mph 16.1 mph N/A   Overcast
4:55 PM 37.4 °F 31.4 °F 28.4 °F 70% 29.95 in 10.0 mi NNW 8.1 mph - N/A   Overcast
5:15 PM 37.4 °F 31.4 °F 28.4 °F 70% 29.95 in 10.0 mi NNW 8.1 mph - N/A   Overcast
5:34 PM 37.4 °F 30.3 °F 28.4 °F 70% 29.96 in 10.0 mi North 10.4 mph - N/A   Overcast
5:55 PM 37.4 °F 32.1 °F 28.4 °F 70% 29.96 in 10.0 mi North 6.9 mph - N/A   Overcast
6:14 PM 37.4 °F 33.8 °F 28.4 °F 70% 29.97 in 10.0 mi North 4.6 mph - N/A   Overcast
6:34 PM 37.4 °F 33.8 °F 28.4 °F 70% 29.96 in 10.0 mi North 4.6 mph - N/A   Overcast
6:55 PM 37.4 °F 31.4 °F 28.4 °F 70% 29.96 in 10.0 mi North 8.1 mph - N/A   Overcast
7:14 PM 37.4 °F 32.8 °F 26.6 °F 65% 29.97 in 10.0 mi North 5.8 mph - N/A   Scattered Clouds
7:35 PM 35.6 °F 32.8 °F 26.6 °F 70% 29.97 in 10.0 mi NNE 3.5 mph - N/A   Clear
7:55 PM 35.6 °F - 26.6 °F 70% 29.97 in 10.0 mi Calm Calm - N/A   Clear
8:14 PM 35.6 °F - 26.6 °F 70% 29.98 in 10.0 mi Calm Calm - N/A   Clear
8:35 PM 32.0 °F - 26.6 °F 80% 29.98 in 10.0 mi Calm Calm - N/A   Clear
8:54 PM 30.2 °F - 26.6 °F 86% 29.99 in 10.0 mi Calm Calm - N/A   Clear
9:14 PM 30.2 °F - 26.6 °F 86% 29.99 in 10.0 mi Calm Calm - N/A   Clear
9:35 PM 32.0 °F - 26.6 °F 80% 30.00 in 10.0 mi Calm Calm - N/A   Clear
9:54 PM 28.4 °F - 24.8 °F 86% 30.01 in 10.0 mi Calm Calm - N/A   Clear
10:15 PM 28.4 °F - 26.6 °F 93% 30.02 in 10.0 mi Calm Calm - N/A   Clear
10:35 PM 28.4 °F - 24.8 °F 86% 30.02 in 10.0 mi Calm Calm - N/A   Clear
10:54 PM 28.4 °F - 24.8 °F 86% 30.03 in 10.0 mi Calm Calm - N/A   Clear
11:15 PM 26.6 °F - 24.8 °F 93% 30.03 in 10.0 mi Calm Calm - N/A   Clear
11:34 PM 26.6 °F 22.6 °F 24.8 °F 93% 30.01 in 10.0 mi East 3.5 mph - N/A   Clear
11:55 PM 30.2 °F 26.7 °F 26.6 °F 86% 30.02 in 10.0 mi ESE 3.5 mph - N/A   Clear